When you browse on this site, cookies collect data to enhance your experience and personalize the content and advertising you see.
Visit our Privacy Policy to learn more. By continuing to use the site, you agree to this use of cookies and data.
  • In Hungary
  • List of Countries
  • For 7 days
  • Water Temperature
  • Weather Map
  • News
  • Weather Widgets
  • user-avatar
    Login

    Hourly Weather Krotkovo

    Today, 26 January, Sunday

    Time Temperature Precipitation Wind Pressure Humidity
    00:00 -5°C° 0 mm 5 mps 736 mmHg 80%
    01:00 -5°C° 0 mm 5 mps 736 mmHg 80%
    02:00 -5°C° 0 mm 5 mps 737 mmHg 80%
    03:00 -4°C° 0 mm 4 mps 738 mmHg 81%
    04:00 -4°C° 0 mm 4 mps 738 mmHg 82%
    05:00 -5°C° 0 mm 4 mps 739 mmHg 83%
    06:00 -5°C° 0 mm 4 mps 739 mmHg 85%
    07:00 -5°C° 0 mm 4 mps 739 mmHg 87%
    08:00 -5°C° 0 mm 3 mps 739 mmHg 87%
    09:00 -4°C° 0 mm 4 mps 740 mmHg 85%
    10:00 -4°C° 0 mm 4 mps 740 mmHg 83%
    11:00 -3°C° 0 mm 4 mps 740 mmHg 80%
    12:00 -3°C° 0 mm 4 mps 739 mmHg 80%
    13:00 -4°C° 0 mm 5 mps 739 mmHg 79%
    14:00 -2°C° 0 mm 5 mps 738 mmHg 79%
    15:00 -3°C° 0.1 mm 6 mps 738 mmHg 84%
    16:00 -3°C° 0.1 mm 6 mps 737 mmHg 90%
    17:00 -3°C° 0.1 mm 7 mps 737 mmHg 95%
    18:00 -2°C° 0.2 mm 7 mps 737 mmHg 94%
    19:00 -1°C° 0.2 mm 7 mps 736 mmHg 93%
    20:00 0°C° 0.2 mm 7 mps 736 mmHg 92%
    21:00 0°C° 0 mm 7 mps 736 mmHg 93%
    22:00 +1°C° 0 mm 6 mps 737 mmHg 93%
    23:00 +1°C° 0 mm 6 mps 737 mmHg 93%

    Tomorrow, 27 January, Monday

    Time Temperature Precipitation Wind Pressure Humidity
    00:00 +1°C° 0.1 mm 6 mps 737 mmHg 94%
    01:00 +1°C° 0.1 mm 5 mps 738 mmHg 94%
    02:00 +1°C° 0.1 mm 5 mps 738 mmHg 94%
    03:00 0°C° 0.1 mm 4 mps 738 mmHg 95%
    04:00 0°C° 0.1 mm 4 mps 739 mmHg 96%
    05:00 +1°C° 0.1 mm 3 mps 739 mmHg 97%
    06:00 0°C° 0.2 mm 3 mps 739 mmHg 97%
    07:00 +1°C° 0.2 mm 2 mps 740 mmHg 97%
    08:00 -1°C° 0.2 mm 2 mps 740 mmHg 97%
    09:00 -1°C° 0.2 mm 2 mps 741 mmHg 96%
    10:00 -1°C° 0.2 mm 2 mps 741 mmHg 95%
    11:00 -2°C° 0.2 mm 2 mps 741 mmHg 94%
    12:00 -2°C° 0.2 mm 2 mps 741 mmHg 95%
    13:00 -2°C° 0.2 mm 2 mps 741 mmHg 96%
    14:00 -2°C° 0.2 mm 2 mps 741 mmHg 96%
    15:00 -2°C° 0.4 mm 2 mps 741 mmHg 97%
    16:00 -2°C° 0.4 mm 2 mps 741 mmHg 97%
    17:00 -2°C° 0.4 mm 3 mps 741 mmHg 97%
    18:00 -2°C° 0.4 mm 3 mps 741 mmHg 97%
    19:00 -2°C° 0.4 mm 3 mps 741 mmHg 97%
    20:00 -2°C° 0.4 mm 3 mps 741 mmHg 97%
    21:00 -1°C° 0.5 mm 3 mps 741 mmHg 97%
    22:00 -1°C° 0.5 mm 3 mps 740 mmHg 97%
    23:00 -1°C° 0.5 mm 3 mps 740 mmHg 98%

    Day after tomorrow, 28 January, Tuesday

    Time Temperature Precipitation Wind Pressure Humidity
    00:00 -1°C° 0.5 mm 2 mps 740 mmHg 98%
    01:00 -1°C° 0.5 mm 2 mps 740 mmHg 98%
    02:00 -1°C° 0.5 mm 2 mps 739 mmHg 98%
    03:00 -1°C° 0.3 mm 2 mps 739 mmHg 98%
    04:00 -1°C° 0.3 mm 2 mps 739 mmHg 98%
    05:00 -1°C° 0.3 mm 2 mps 738 mmHg 98%
    06:00 -1°C° 0.2 mm 2 mps 738 mmHg 98%
    07:00 -1°C° 0.2 mm 2 mps 738 mmHg 98%
    08:00 -1°C° 0.2 mm 2 mps 738 mmHg 97%
    09:00 -1°C° 0.1 mm 2 mps 738 mmHg 97%
    10:00 -1°C° 0.1 mm 2 mps 738 mmHg 97%
    11:00 -1°C° 0.1 mm 2 mps 738 mmHg 96%
    12:00 -1°C° 0.1 mm 2 mps 738 mmHg 96%
    13:00 -1°C° 0.1 mm 2 mps 738 mmHg 96%
    14:00 -1°C° 0.1 mm 2 mps 738 mmHg 96%
    15:00 -1°C° 0.1 mm 2 mps 738 mmHg 97%
    16:00 -1°C° 0.1 mm 2 mps 737 mmHg 97%
    17:00 -1°C° 0.1 mm 2 mps 737 mmHg 97%
    18:00 -1°C° 0.1 mm 2 mps 737 mmHg 97%
    19:00 -1°C° 0.1 mm 2 mps 738 mmHg 97%
    20:00 -1°C° 0.1 mm 2 mps 738 mmHg 97%
    21:00 -1°C° 0.1 mm 2 mps 738 mmHg 97%
    22:00 -1°C° 0.1 mm 2 mps 737 mmHg 97%
    23:00 -1°C° 0.1 mm 2 mps 737 mmHg 97%

    29 January, Wednesday

    Time Temperature Precipitation Wind Pressure Humidity
    00:00 -1°C° 0.1 mm 2 mps 737 mmHg 97%
    01:00 -1°C° 0.1 mm 2 mps 737 mmHg 97%
    02:00 -1°C° 0.1 mm 2 mps 737 mmHg 97%
    03:00 -1°C° 0 mm 2 mps 737 mmHg 97%
    04:00 -1°C° 0 mm 3 mps 737 mmHg 97%
    05:00 -1°C° 0 mm 3 mps 736 mmHg 96%
    06:00 -1°C° 0 mm 3 mps 736 mmHg 96%
    07:00 -2°C° 0 mm 4 mps 736 mmHg 96%
    08:00 -3°C° 0 mm 4 mps 736 mmHg 96%
    09:00 -2°C° 0 mm 4 mps 736 mmHg 94%
    10:00 -2°C° 0 mm 4 mps 736 mmHg 93%
    11:00 -2°C° 0 mm 4 mps 736 mmHg 92%
    12:00 -2°C° 0 mm 4 mps 736 mmHg 92%
    13:00 -2°C° 0 mm 4 mps 735 mmHg 92%
    14:00 -1°C° 0 mm 3 mps 735 mmHg 92%
    15:00 -1°C° 0.1 mm 3 mps 735 mmHg 94%
    16:00 -1°C° 0.1 mm 3 mps 735 mmHg 96%
    17:00 -1°C° 0.1 mm 3 mps 734 mmHg 97%
    18:00 -1°C° 0 mm 4 mps 734 mmHg 97%
    19:00 -1°C° 0 mm 4 mps 734 mmHg 97%
    20:00 -1°C° 0 mm 4 mps 733 mmHg 98%
    21:00 -1°C° 0 mm 4 mps 733 mmHg 97%
    22:00 -1°C° 0 mm 4 mps 733 mmHg 97%
    23:00 -1°C° 0 mm 4 mps 732 mmHg 97%

    30 January, Thursday

    Time Temperature Precipitation Wind Pressure Humidity
    00:00 -1°C° 0.1 mm 4 mps 732 mmHg 96%
    01:00 -2°C° 0.1 mm 4 mps 732 mmHg 96%
    02:00 -2°C° 0.1 mm 4 mps 731 mmHg 95%
    03:00 -2°C° 0.2 mm 4 mps 731 mmHg 95%
    04:00 -4°C° 0.2 mm 5 mps 730 mmHg 95%
    05:00 -4°C° 0.2 mm 5 mps 730 mmHg 95%
    06:00 -4°C° 0.2 mm 5 mps 729 mmHg 95%
    07:00 -5°C° 0.2 mm 5 mps 729 mmHg 94%
    08:00 -5°C° 0.2 mm 5 mps 729 mmHg 94%
    09:00 -5°C° 0.4 mm 5 mps 728 mmHg 94%
    10:00 -5°C° 0.4 mm 5 mps 728 mmHg 95%
    11:00 -5°C° 0.4 mm 5 mps 728 mmHg 95%
    12:00 -4°C° 0.6 mm 5 mps 728 mmHg 95%
    13:00 -3°C° 0.6 mm 4 mps 728 mmHg 95%
    14:00 -3°C° 0.6 mm 4 mps 728 mmHg 96%
    15:00 -2°C° 0.5 mm 3 mps 728 mmHg 96%
    16:00 -2°C° 0.5 mm 3 mps 728 mmHg 96%
    17:00 -3°C° 0.5 mm 2 mps 728 mmHg 97%
    18:00 -3°C° 0.1 mm 2 mps 728 mmHg 97%
    19:00 -3°C° 0.1 mm 2 mps 729 mmHg 97%
    20:00 -3°C° 0.1 mm 2 mps 729 mmHg 97%
    21:00 -3°C° 0.1 mm 2 mps 729 mmHg 97%
    22:00 -3°C° 0.1 mm 2 mps 729 mmHg 97%
    23:00 -3°C° 0.1 mm 2 mps 730 mmHg 97%

    31 January, Friday

    Time Temperature Precipitation Wind Pressure Humidity
    00:00 -3°C° 0 mm 2 mps 730 mmHg 97%
    01:00 -3°C° 0 mm 2 mps 730 mmHg 97%
    02:00 -1°C° 0 mm 1 mps 730 mmHg 97%
    03:00 -1°C° 0 mm 1 mps 730 mmHg 97%
    04:00 -1°C° 0 mm 1 mps 730 mmHg 96%
    05:00 -1°C° 0 mm 1 mps 731 mmHg 96%
    06:00 -1°C° 0 mm 1 mps 731 mmHg 96%
    07:00 -1°C° 0 mm 1 mps 731 mmHg 95%
    08:00 -1°C° 0 mm 1 mps 731 mmHg 95%
    09:00 0°C° 0 mm 1 mps 731 mmHg 94%
    10:00 0°C° 0 mm 1 mps 732 mmHg 92%
    11:00 +1°C° 0 mm 1 mps 732 mmHg 91%
    12:00 +1°C° 0 mm 1 mps 732 mmHg 91%
    13:00 0°C° 0 mm 0 mps 732 mmHg 90%
    14:00 0°C° 0 mm 0 mps 732 mmHg 89%
    15:00 0°C° 0 mm 0 mps 733 mmHg 91%
    16:00 -1°C° 0 mm 0 mps 733 mmHg 92%
    17:00 0°C° 0 mm 1 mps 733 mmHg 93%
    18:00 -1°C° 0 mm 1 mps 734 mmHg 93%
    19:00 -2°C° 0 mm 1 mps 734 mmHg 94%
    20:00 -3°C° 0 mm 1 mps 735 mmHg 94%
    21:00 -3°C° 0 mm 1 mps 735 mmHg 95%
    22:00 -3°C° 0 mm 1 mps 735 mmHg 95%
    23:00 -4°C° 0 mm 1 mps 736 mmHg 96%
    Show more